Regional Weather Roundup
Issued by NWS

Home | Current Version | Previous Version | Text Only | Print | Product List | Glossary Off
Versions: 1 2 3 4 5 6 7 8 9 10 11 12 13 14 15 16 17 18 19 20 21 22 23 24 25 26 27 28 29 30 31 32 33 34 35 36 37 38 39 40 41 42 43 44 45 46 47 48 49 50

000
ASUS43 KLOT 062306
RWRIL

ILLINOIS REGIONAL WEATHER ROUNDUP
NATIONAL WEATHER SERVICE CHICAGO/ROMEOVILLE IL
500 PM CST FRI MAR 06 2015

NOTE: "FAIR" INDICATES FEW OR NO CLOUDS BELOW 12,000 FEET WITH NO
SIGNIFICANT WEATHER AND/OR OBSTRUCTIONS TO VISIBILITY.

* THESE STATIONS ARE NOT UNDER NWS QUALITY CONTROL. THEY ALSO MAY NOT
  REPORT WEATHER SUCH AS PRECIPITATION OR FOG.

ILZ001-002-007-009-015-016-024-070000-
NORTHWEST ILLINOIS

CITY           SKY/WX    TMP DP  RH WIND       PRES   REMARKS
MOLINE         CLEAR     36  22  56 S8        30.16F WCI  30
STERLING*      CLEAR     34  23  64 W3        30.17F
SAVANNA*       CLEAR     34  21  60 SW10      30.15F WCI  26
$$

ILZ003-004-008-010-011-017-018-070000-
NORTH CENTRAL ILLINOIS

CITY           SKY/WX    TMP DP  RH WIND       PRES   REMARKS
ROCKFORD       PTCLDY    30  20  66 S12       30.16F WCI  20
FREEPORT*      CLEAR     29  20  69 SW16      30.15F WCI  17
ROCHELLE*      CLEAR     27  22  80 S12       30.18F WCI  17
DE KALB*       CLEAR     24  19  80 S14       30.17F WCI  12
PERU*          CLEAR     32  20  62 SW13      30.20F WCI  23
$$

ILZ005-006-012>014-019>023-070000-
NORTHEAST ILLINOIS

CITY           SKY/WX    TMP DP  RH WIND       PRES   REMARKS
CHICAGO-OHARE  PTCLDY    25  15  66 SW18G26   30.18F WCI  11
CHICAGO-MIDWAY CLEAR     26  15  63 SW18G25   30.21F WCI  13
AURORA         CLEAR     27  16  63 S16       30.19F WCI  15
LANSING*       CLEAR     24  15  68 SW18      30.24F WCI   9
JOLIET*        CLEAR     25  17  69 S14       30.22F WCI  14
WAUKEGAN       CLEAR     25  16  68 SW20G31   30.13F WCI  11
DUPAGE AIRPORT CLEAR     25  16  68 S14       30.18F WCI  13
KANKAKEE*      CLEAR     25  17  72 S13       30.27S WCI  13
WHEELING       CLEAR     26  14  60 S15G29    30.19F WCI  14
MORRIS*        CLEAR     26  20  79 S14       30.21F WCI  14
ROMEOVILLE*    CLEAR     25  17  70 SW18      30.21F WCI  12
NORTHERLY ISL    N/A     26  14  60 S14         N/A  WCI  15
$$

LMZ740>746-070000-
SOUTHERN LAKE MICHIGAN

STATION/POSITION SKY/WX   TEMP    WIND        PRES    VSBY  WAVE
                          AIR SEA DIR/SP/G                  HT/PER
                          (F)     (DEG/KT/KT) (MB)    (MI)  (FT/S)
WAUKEGAN HARBOR            27                   N/A
HARRISON CRIB              25     200/ 27/ 31   N/A
BURNHAM HARBOR             26     210/  9/ 22   N/A
CALUMET HARBOR             25     200/ 16/ 22 1021.8F
MICHIGAN CITY              25     180/ 14/ 17   N/A
$$

ILZ025>027-034>036-040-047-049-050-058-095>099-070000-
WEST-CENTRAL ILLINOIS

CITY           SKY/WX    TMP DP  RH WIND       PRES   REMARKS
QUINCY         SUNNY     42  26  53 SW8       30.21F
GALESBURG*     CLEAR     36  27  69 S7        30.19S WCI  31
MACOMB*        SUNNY     40  29  65 SW8       30.22S
JACKSONVILLE*  SUNNY     42  27  55 S5        30.23S
PITTSFIELD*    SUNNY     47  28  48 SW8       30.24S
$$

ILZ028>032-037-038-041>044-048-051>054-059>061-070000-
CENTRAL ILLINOIS

CITY           SKY/WX    TMP DP  RH WIND       PRES   REMARKS
PONTIAC        CLEAR     29  20  69 S14       30.25S WCI  18
BLOOMINGTON    CLEAR     28  20  72 SW18      30.24F WCI  15
DECATUR        CLEAR     30  18  60 S13       30.27F WCI  20
PEORIA         CLEAR     34  22  61 S14       30.23F WCI  25
LACON*         CLEAR     32  20  60 SW9       30.21F WCI  24
LINCOLN*       CLEAR     32  22  67 S10       30.27F WCI  24
SPRINGFIELD    CLEAR     33  22  63 S10       30.26S WCI  25
TAYLORVILLE    CLEAR     30  21  69 S15       30.27S WCI  19
$$

ILZ033-039-045-046-055>057-062-063-070000-
EAST-CENTRAL ILLINOIS

CITY           SKY/WX    TMP DP  RH WIND       PRES   REMARKS
CHAMPAIGN      CLEAR     24  15  68 S17       30.28F WCI  11
DANVILLE*      CLEAR     25  12  58 S17       30.27R WCI  12
RANTOUL*       CLEAR     27  17  67 S12       30.28S WCI  16
MATTOON        CLEAR     26  13  57 S14       30.29F WCI  14
PARIS*         CLEAR     25  15  66 S16       30.32F WCI  12
$$

ILZ079-100>102-070000-
SOUTHWEST ILLINOIS

CITY           SKY/WX    TMP DP  RH WIND       PRES   REMARKS
ALTON          SUNNY     39  19  45 MISG        N/A
BELLEVILLE     SUNNY     36  22  58 VRB6      30.29F WCI  31
CAHOKIA*       SUNNY     41  25  53 SE13      30.28S
SPARTA*        SUNNY     30  17  57 S13G20    30.36S WCI  20
$$

ILZ064>066-069>071-074>076-080>082-084>086-088>090-092>094-070000-
SOUTH-CENTRAL ILLINOIS

CITY           SKY/WX    TMP DP  RH WIND       PRES   REMARKS
CARBONDALE     CLEAR     29  13  51 S20       30.40R WCI  16
CAIRO*         SUNNY     31  16  54 SW8       30.46S WCI  24
EFFINGHAM*     CLEAR     32  12  44 SE7G16    30.34F WCI  25
MARION         CLEAR     30  16  55 S9        30.42R WCI  22
MT. VERNON     CLEAR     32  18  55 S17       30.37S WCI  21
CENTRALIA*     CLEAR     32  17  53 S14G21    30.34F WCI  22
SALEM*         CLEAR     35  18  50 S9        30.34F WCI  27
METROPOLIS*    CLEAR     30  14  50 S12       30.44S WCI  21
$$

ILZ067-068-072-073-078-083-087-091-070000-
SOUTHEAST ILLINOIS

CITY           SKY/WX    TMP DP  RH WIND       PRES   REMARKS
LAWRENCEVILLE  CLEAR     26  12  55 S18       30.38F WCI  13
FLORA*         CLEAR     30  17  59 S12       30.36F WCI  20
FAIRFIELD*     CLEAR     31  17  54 S12       30.38R WCI  22
HARRISBURG*    CLEAR     31  14  49 S10       30.40F WCI  22
ROBINSON*      CLEAR     26  13  58 S12       30.39R WCI  16
CARMI*         CLEAR     31  20  62 SE10      30.38F WCI  22
$$

ABBREVIATIONS USED IN REMARKS
   TC - TEMPERATURE IN CELSIUS
  WCI - WIND CHILL INDEX
   HX - HEAT INDEX
  VSB - VISIBILITY
$$




USA.gov is the U.S. government's official web portal to all federal, state and local government web resources and services.